Weather History for Mercury, NV

Change the Weather History Date:

Saturday, March 2, 2013

  Actual Average Record
Temperature  
Mean Temperature 58 °F -  
Max Temperature 75 °F 57 °F 75 °F (1999)
Min Temperature 42 °F 35 °F 30 °F (2002)
Degree Days  
Heating Degree Days 6    
Growing Degree Days 8 (Base 50)    
Moisture  
Dew Point 21 °F    
Average Humidity 25    
Maximum Humidity 47    
Minimum Humidity 5    
Precipitation  
Precipitation 0.00 in - - ()
Sea Level Pressure  
Sea Level Pressure 30.15 in    
Wind  
Wind Speed 6 mph (SE)    
Max Wind Speed 16 mph    
Max Gust Speed 23 mph    
Visibility 10 miles    
Events      
Averages and records for this station are not official NWS values.
T = Trace of Precipitation, MM = Missing Value Source: NWS Daily Summary

Daily Weather History Graph

Daily Weather History Graph

Search for Another Location

Airport:

Trip Planner

Search our weather history database for the weather conditions in past years. The results will help you decide how hot, cold, wet, or windy it might be!

Date:

Astronomy

Mar. 02, 2013 Rise Set
Actual Time 6:12 AM PST 5:39 PM PST
Civil Twilight 5:47 AM PST 6:05 PM PST
Nautical Twilight 5:17 AM PST 6:35 PM PST
Astronomical Twilight 4:47 AM PST 7:05 PM PST
Moon 11:13 PM PST (3/2) 8:53 AM PST (3/2)
Length of Visible Light 12h 18m
Length of Day
11h 26m
Waning Gibbous, 73% of the Moon is Illuminated
Mar 2
Waning Gibbous
Mar 4
Last Quarter
Mar 11
New
Mar 19
First Quarter
Mar 27
Full

Hourly Weather History & Observations

Time (PST) Temp. Windchill Dew Point Humidity Pressure Visibility Wind Dir Wind Speed Gust Speed Precip Events Conditions
12:52 AM 48.0 °F - 21.9 °F 36% 30.30 in 10.0 mi ESE 4.6 mph - N/A   Clear
1:52 AM 45.0 °F 43.5 °F 21.9 °F 40% 30.30 in 10.0 mi NNE 3.5 mph - N/A   Clear
2:52 AM 45.0 °F 41.2 °F 21.9 °F 40% 30.27 in 10.0 mi NNW 6.9 mph - N/A   Clear
3:52 AM 42.1 °F 40.2 °F 23.0 °F 47% 30.26 in 10.0 mi Variable 3.5 mph - N/A   Clear
4:52 AM 48.9 °F - 23.0 °F 36% 30.26 in 10.0 mi East 3.5 mph - N/A   Clear
5:52 AM 46.9 °F - 23.0 °F 39% 30.27 in 10.0 mi East 5.8 mph - N/A   Clear
6:52 AM 46.0 °F 44.8 °F 24.1 °F 42% 30.29 in 10.0 mi North 3.5 mph - N/A   Clear
7:52 AM 54.0 °F - 25.0 °F 33% 30.28 in 10.0 mi North 5.8 mph - N/A   Clear
8:52 AM 60.1 °F - 24.1 °F 25% 30.28 in 10.0 mi NE 3.5 mph - N/A   Clear
9:52 AM 63.0 °F - 25.0 °F 24% 30.25 in 10.0 mi SE 6.9 mph - N/A   Clear
10:52 AM 66.9 °F - 24.1 °F 20% 30.24 in 10.0 mi ESE 11.5 mph - N/A   Clear
11:52 AM 68.0 °F - 23.0 °F 18% 30.19 in 10.0 mi Calm Calm - N/A   Clear
12:52 PM 70.0 °F - 21.9 °F 16% 30.14 in 10.0 mi Calm Calm - N/A   Clear
1:52 PM 73.0 °F - 19.0 °F 13% 30.12 in 10.0 mi South 16.1 mph 23.0 mph N/A   Clear
2:52 PM 73.0 °F - 17.1 °F 12% 30.09 in 10.0 mi SSW 16.1 mph 23.0 mph N/A   Clear
3:52 PM 72.0 °F - 17.1 °F 12% 30.07 in 10.0 mi SSW 12.7 mph - N/A   Clear
4:52 PM 70.0 °F - 19.9 °F 15% 30.04 in 10.0 mi SSW 11.5 mph - N/A   Clear
5:52 PM 66.0 °F - 16.0 °F 15% 30.04 in 10.0 mi SSW 6.9 mph - N/A   Clear
6:52 PM 64.9 °F - 16.0 °F 15% 30.04 in 10.0 mi South 8.1 mph - N/A   Clear
7:52 PM 57.0 °F - 23.0 °F 27% 30.04 in 10.0 mi East 9.2 mph - N/A   Clear
8:52 PM 55.0 °F - 23.0 °F 29% 30.02 in 10.0 mi East 8.1 mph - N/A   Clear
9:52 PM 55.0 °F - 24.1 °F 30% 30.01 in 10.0 mi East 6.9 mph - N/A   Clear
10:52 PM 61.0 °F - 17.1 °F 18% 29.98 in 10.0 mi SSW 3.5 mph - N/A   Clear
11:52 PM 64.0 °F - 17.1 °F 16% 29.95 in 10.0 mi South 12.7 mph - N/A   Clear